Regional Weather Roundup
Issued by NWS

Home | Current Version | Previous Version | Text Only | Print | Product List | Glossary On
Versions: 1 2 3 4 5 6 7 8 9 10 11 12 13 14 15 16 17 18 19 20 21 22 23 24 25 26 27 28 29 30 31 32 33 34 35 36 37 38 39 40 41 42 43 44 45 46 47 48
000
ASUS45 KBOU 210310
RWRCO

WEATHER ROUNDUP FOR COLORADO
NATIONAL WEATHER SERVICE DENVER/BOULDER CO
800 PM MST TUE FEB 20 2018

NOTE: "FAIR" INDICATES FEW OR NO CLOUDS BELOW 12000 FEET WITH NO
SIGNIFICANT WEATHER AND/OR OBSTRUCTIONS TO VISIBILITY.

COZ001>005-013-030-031-210400-
...NORTHWEST COLORADO...

CITY           SKY/WX    TMP DP  RH WIND       PRES   REMARKS
CRAIG          FAIR      -1  -6  79 CALM      30.08R
HAYDEN         FAIR       8   1  73 E3        30.07R
MEEKER         FAIR       1  -4  79 CALM      30.06R
RANGELY        FAIR      12   3  67 SE3       30.09R
RABBIT EARS PA MOCLDY    -2  -6  84 W10G17    29.84R WCI -19
STEAMBOAT SPGS CLOUDY     8   1  73 SE5       30.04R WCI  -1
WALDEN         FAIR      -2  -9  71 SE9       29.98R WCI -18
$$

COZ006>008-011-210400-
...WEST CENTRAL VALLEYS...

CITY           SKY/WX    TMP DP  RH WIND       PRES   REMARKS
GRAND JUNCTION FAIR      25  17  72 SE8       30.09R WCI  16
MONTROSE       LGT SNOW  20  18  92 CALM      30.12R FOG
EAGLE          CLOUDY    18  10  71 SW7       30.07R WCI   9
RIFLE          CLOUDY    18   8  65 S7        30.09R WCI   9
DELTA          FAIR      23  15  71 N5        30.12R WCI  17
NUCLA          FAIR      21  18  86 E7        30.11R WCI  13
$$

COZ017>023-064>068-210400-
...SOUTHWEST COLORADO...

CITY           SKY/WX    TMP DP  RH WIND       PRES   REMARKS
DURANGO        MOCLDY    21  11  65 N3        30.05R
CORTEZ         FAIR      19  11  70 NE5       30.07R WCI  12
PAGOSA SPRINGS MOCLDY    17   6  62 NE3       30.04R
TELLURIDE      FAIR      10   6  82 E3        29.98R
WOLF CREEK PAS CLOUDY    -2  -4  92 SW22G33   29.88R WCI -26
$$

COZ009-010-012-014-032>034-037-058>063-210400-
...CENTRAL COLORADO...

CITY           SKY/WX    TMP DP  RH WIND       PRES   REMARKS
ASPEN          LGT SNOW  12   6  77 S6        29.99R WCI   3
BUENA VISTA    FAIR      16  -3  42 W13       29.96R WCI   2
COPPER MTN     FAIR       1  -9  60 S10       29.81R WCI -14
BERTHOUD PASS  FAIR      -8 -18  59 W15G21    29.77R WCI -29
COTTONWOOD PAS CLOUDY    14   0  52 W5        29.91R WCI   6
GUNNISON       FAIR       9   2  73 E7        30.01R WCI  -2
GRANBY         CLOUDY     8   4  85 CALM      29.98R FOG
KREMMLING      LGT SNOW  18  10  73 CALM      30.02R
LEADVILLE      FAIR      -5 -10  79 E7        29.88R WCI -19
MONARCH PASS   FAIR       0  -6  78 SW18      29.92S WCI -22
SALIDA         FAIR      18   3  50 SW7       30.06R WCI   9
SUNLIGHT       CLOUDY     0  -6  78 SW7       29.92R WCI -13
WILKERSON PASS CLOUDY     3  -6  66 SW9       29.86R WCI -11
$$

COZ069>075-210400-
...SAN LUIS VALLEY/SANGRE DE CRISTO MOUNTAINS...

CITY           SKY/WX    TMP DP  RH WIND       PRES   REMARKS
ALAMOSA        FAIR      16   3  56 SW14      30.00R WCI   2
DEL NORTE      FAIR      13   1  59 CALM      30.00R
LA VETA PASS   MOCLDY     9  -2  61 S16G31    30.02R WCI  -9
SAGUACHE       FAIR      12   5  73 NW10      30.00R WCI  -1
$$

COZ035-036-038>040-210400-
...NORTHERN COLORADO FRONT RANGE...

CITY           SKY/WX    TMP DP  RH WIND       PRES   REMARKS
DENVER INTL AP FAIR       3  -2  79 SE9       30.10R WCI -12
AURORA         PTCLDY     2  -1  87 E8        30.09R WCI -11
FRONT RANGE AP PTCLDY     9   3  78 SE8       30.11  WCI  -4
ERIE MUNI ARPT FAIR       3   0  86 S3        30.19R
BOULDER MUN AP FAIR       9   5  85 S3        30.12R
CENTENNIAL     FLURRIES  12   8  84 CALM      30.07R
BROOMFIELD     MOCLDY   N/A N/A N/A CALM      30.10R
FORT COLLINS   FAIR       3  -3  76 S5        30.15R WCI  -6
LONGMONT       MOCLDY     2  -3  79 S3        30.16R
$$

COZ041-046-047-076>085-087-088-210400-
...PIKES PEAK/PALMER DIVIDE AND SOUTHERN FOOTHILLS...

CITY           SKY/WX    TMP DP  RH WIND       PRES   REMARKS
COLO. SPRINGS  LGT SNOW  15  12  88 S14       30.10R FOG     WCI   0
A. F. ACADEMY  FLURRIES  16  12  86 S14       30.05R WCI   1
SCHRIEVER AFB  NOT AVBL
CHEYENNE MTN   FLURRIES  11  10  92 SE15      29.99R WCI  -5
ELLICOTT         N/A    N/A N/A N/A S10         N/A
FALCON         FLURRIES  14  11  90 MISG      30.07R
FORT CARSON    FLURRIES  16  10  79 S12       30.12R WCI   3
LIMON          FAIR       1  -1  91 CALM      30.14R
MONUMENT HILL  FLURRIES  16  10  79 S15       30.03R WCI   1
CANON CITY     FLURRIES  19  12  73 E10       30.14R WCI   8
WALSENBURG     NOT AVBL
TRINIDAD       CLOUDY    16   9  74 N7        30.11R WCI   6
$$

COZ042>045-048>051-090-091-210400-
...NORTHEAST COLORADO...

CITY           SKY/WX    TMP DP  RH WIND       PRES   REMARKS
GREELEY ARPT   FAIR      -9 -13  83 CALM      30.18R
AKRON          FAIR       2  -4  76 S5        30.18R WCI  -8
BURLINGTON     FAIR      -4  -8  83 CALM      30.23R
WRAY           FAIR       7   0  72 CALM      30.28R
YUMA           NOT AVBL
STERLING       FAIR       5   0  78 SW6       30.22R WCI  -6
HOLYOKE        FAIR       5  -4  66 CALM      30.26R
FORT MORGAN    FAIR       7  -2  69 W3        30.19R
$$

COZ086-089-092>099-210400-
...SOUTHEAST COLORADO...

CITY           SKY/WX    TMP DP  RH WIND       PRES   REMARKS
PUEBLO         FAIR      19  10  68 SE5       30.19R WCI  12
LA JUNTA       FAIR      15   8  73 NE6       30.22R WCI   6
LAMAR          CLOUDY    19   3  49 NE9       30.24R WCI   8
SPRINGFIELD      N/A     10  -2  58 NE7       30.19R WCI  -1
$$




USA.gov is the U.S. government's official web portal to all federal, state and local government web resources and services.